Time,TemperatureF,DewpointF,PressureIn,WindDirection,WindDirectionDegrees,WindSpeedMPH,WindSpeedGustMPH,Humidity,HourlyPrecipIn,Conditions,Clouds,dailyrainin,SoftwareType,DateUTC
2013-07-24 00:55:00,81.4,75.0,29.98,West,261,2.0,9.0,81,0.00,,BKN150,0.00,VWS V14.00,2013-07-24 04:55:00,
2013-07-24 01:55:00,80.7,75.4,29.96,WSW,246,2.0,9.0,84,0.00,,OVC080,0.00,VWS V14.00,2013-07-24 05:55:00,
2013-07-24 02:55:00,79.2,73.6,29.93,SW,234,0.0,10.0,83,0.00,,OVC080,0.00,VWS V14.00,2013-07-24 06:55:00,
2013-07-24 03:55:00,78.7,74.8,29.92,WSW,258,0.0,4.0,88,0.00,,OVC200,0.00,VWS V14.00,2013-07-24 07:55:00,
2013-07-24 04:55:00,78.3,75.1,29.93,West,269,0.0,3.0,90,0.00,,OVC200,0.00,VWS V14.00,2013-07-24 08:55:00,
2013-07-24 05:55:00,77.9,75.1,29.93,West,277,0.0,4.0,91,0.00,,BKN200,0.00,VWS V14.00,2013-07-24 09:55:00,
2013-07-24 06:55:00,77.2,74.7,29.93,West,276,0.0,3.0,92,0.00,,BKN200,0.00,VWS V14.00,2013-07-24 10:55:00,
2013-07-24 07:55:00,78.9,75.4,29.95,West,259,1.0,5.0,89,0.00,,OVC250,0.00,VWS V14.00,2013-07-24 11:55:00,
2013-07-24 08:55:00,80.8,75.2,29.96,West,267,0.0,7.0,83,0.00,,OVC250,0.00,VWS V14.00,2013-07-24 12:55:00,
2013-07-24 09:55:00,82.9,75.3,29.96,West,273,0.0,11.0,78,0.00,,BKN250,0.00,VWS V14.00,2013-07-24 13:55:00,
2013-07-24 10:55:00,85.3,75.7,29.96,WSW,258,0.0,14.0,73,0.00,,BKN250,0.00,VWS V14.00,2013-07-24 14:55:00,
2013-07-24 11:55:00,86.8,75.0,29.96,WSW,258,3.0,13.0,68,0.00,,BKN250,0.00,VWS V14.00,2013-07-24 15:55:00,
2013-07-24 12:55:00,89.3,73.6,29.96,NW,311,4.0,13.0,60,0.00,,BKN250,0.00,VWS V14.00,2013-07-24 16:55:00,
2013-07-24 13:55:00,91.2,71.7,29.94,SW,226,1.0,14.0,53,0.00,,BKN250,0.00,VWS V14.00,2013-07-24 17:55:00,
2013-07-24 14:55:00,91.5,72.0,29.92,SW,230,1.0,16.0,53,0.00,,BKN250,0.00,VWS V14.00,2013-07-24 18:55:00,
2013-07-24 15:55:00,89.2,76.4,29.91,South,177,0.0,11.0,66,0.00,,BKN250,0.00,VWS V14.00,2013-07-24 19:55:00,
2013-07-24 16:55:00,87.8,78.5,29.90,SE,125,3.0,12.0,74,0.00,,SCT250,0.00,VWS V14.00,2013-07-24 20:55:00,
2013-07-24 17:55:00,91.8,72.2,29.89,WNW,290,0.0,12.0,53,0.00,,SCT250,0.00,VWS V14.00,2013-07-24 21:55:00,
2013-07-24 18:55:00,87.2,75.4,29.89,SSW,197,0.0,7.0,68,0.00,,BKN250,0.00,VWS V14.00,2013-07-24 22:55:00,
2013-07-24 19:55:00,87.6,65.5,29.90,West,281,3.0,6.0,48,0.00,,BKN250,0.00,VWS V14.00,2013-07-24 23:55:00,
2013-07-24 20:55:00,85.5,68.5,29.92,WNW,289,0.0,6.0,57,0.00,,BKN250,0.00,VWS V14.00,2013-07-25 00:55:00,
2013-07-24 21:55:00,83.6,70.6,29.93,WNW,289,0.0,5.0,65,0.00,,BKN250,0.00,VWS V14.00,2013-07-25 01:55:00,
2013-07-24 22:55:00,81.9,71.2,29.93,West,273,0.0,4.0,70,0.00,,SCT250,0.00,VWS V14.00,2013-07-25 02:55:00,
2013-07-24 23:57:00,80.2,70.8,29.93,WSW,252,4.0,5.0,73,0.00,,SCT250,0.00,VWS V14.00,2013-07-25 03:57:00,